Huntington, WV

2:23 PM EDT on March 29, 2017 (GMT -0400)
Tri-State / Ferguson

Weather History for KHTS - October, 2010

Change the Weather History Date:

Tuesday, October 26, 2010

  Actual Average Record
Temperature  
Mean Temperature 69 °F 54 °F  
Max Temperature 85 °F 65 °F 87 °F (1939)
Min Temperature 52 °F 42 °F 21 °F (1962)
Degree Days  
Heating Degree Days 0 12  
Month to date heating degree days 164 218  
Since 1 July heating degree days 192 276  
Cooling Degree Days 4 0  
Month to date cooling degree days 18 16  
Year to date cooling degree days 1406 1127  
Growing Degree Days 18 (Base 50)    
Moisture  
Dew Point 57 °F    
Average Humidity 72    
Maximum Humidity 100    
Minimum Humidity 43    
Precipitation  
Precipitation 0.72 in 0.10 in 0.95 in (1978)
Month to date precipitation 2.42 2.32  
Year to date precipitation 36.04 35.35  
Snow  
Snow 0.00 in - - ()
Month to date snowfall 0.0  
Since 1 September snowfall 0.0  
Snow Depth 0.00 in    
Sea Level Pressure  
Sea Level Pressure 29.66 in    
Wind  
Wind Speed 9 mph (SSW)    
Max Wind Speed 32 mph    
Max Gust Speed 45 mph    
Visibility 8 miles    
Events Rain    
T = Trace of Precipitation, MM = Missing Value Source: NWS Daily Summary

Daily Weather History Graph

Daily Weather History Graph

Search for Another Location

Airport or City:

Trip Planner

Search our weather history database for the weather conditions in past years. The results will help you decide how hot, cold, wet, or windy it might be!

Date:

Astronomy

Oct. 26, 2010 Rise Set
Actual Time 7:50 AM EDT 6:37 PM EDT
Civil Twilight 7:23 AM EDT 7:04 PM EDT
Nautical Twilight 6:52 AM EDT 7:35 PM EDT
Astronomical Twilight 6:21 AM EDT 8:06 PM EDT
Moon 9:01 PM EDT (10/26) 11:26 AM EDT (10/26)
Length of Visible Light 11h 41m
Length of Day
10h 47m
Waning Gibbous, 87% of the Moon is Illuminated
Oct 26
Waning Gibbous
Oct 30
Last Quarter
Nov 6
New
Nov 13
First Quarter
Nov 21
Full

Hourly Weather History & Observations

Time (EDT) Temp. Heat Index Dew Point Humidity Pressure Visibility Wind Dir Wind Speed Gust Speed Precip Events Conditions
12:51 AM 62.1 °F - 55.0 °F 78% 29.74 in 10.0 mi SE 3.5 mph - N/A   Clear
1:51 AM 59.0 °F - 55.0 °F 87% 29.73 in 10.0 mi ESE 3.5 mph - N/A   Clear
2:51 AM 60.1 °F - 55.0 °F 83% 29.71 in 10.0 mi ESE 4.6 mph - N/A   Clear
3:51 AM 62.1 °F - 55.0 °F 78% 29.69 in 10.0 mi SE 4.6 mph - N/A   Partly Cloudy
4:51 AM 64.0 °F - 55.9 °F 75% 29.67 in 10.0 mi SE 4.6 mph - N/A   Mostly Cloudy
5:51 AM 64.9 °F - 55.9 °F 73% 29.65 in 10.0 mi SE 5.8 mph - N/A   Scattered Clouds
6:51 AM 66.0 °F - 55.9 °F 70% 29.64 in 10.0 mi SSE 5.8 mph - N/A   Clear
7:51 AM 66.9 °F - 57.0 °F 70% 29.62 in 10.0 mi SSE 8.1 mph - N/A   Clear
8:51 AM 69.1 °F - 57.9 °F 68% 29.63 in 10.0 mi South 11.5 mph 18.4 mph N/A   Clear
9:51 AM 71.1 °F - 59.0 °F 66% 29.62 in 10.0 mi South 11.5 mph 18.4 mph N/A   Clear
10:51 AM 73.9 °F - 60.1 °F 62% 29.60 in 10.0 mi South 15.0 mph 24.2 mph N/A   Clear
11:51 AM 78.1 °F - 61.0 °F 56% 29.59 in 10.0 mi South 13.8 mph 21.9 mph N/A   Mostly Cloudy
12:51 PM 79.0 °F - 60.1 °F 52% 29.57 in 10.0 mi SSW 15.0 mph 23.0 mph N/A   Overcast
1:51 PM 82.0 °F 82.1 °F 59.0 °F 45% 29.53 in 10.0 mi SSW 24.2 mph 36.8 mph N/A   Mostly Cloudy
2:51 PM 82.9 °F 82.6 °F 57.9 °F 42% 29.48 in 10.0 mi South 20.7 mph 38.0 mph N/A   Partly Cloudy
3:51 PM 82.9 °F 82.6 °F 57.9 °F 42% 29.51 in 10.0 mi West 15.0 mph 34.5 mph N/A   Mostly Cloudy
4:01 PM 66.2 °F - 60.8 °F 83% 29.58 in 4.0 mi WNW 21.9 mph 43.7 mph 0.00 in Rain Rain
4:27 PM 62.6 °F - 60.8 °F 94% 29.61 in 1.8 mi West 8.1 mph 25.3 mph 0.04 in Rain Light Rain
4:35 PM 62.6 °F - 60.8 °F 94% 29.61 in 1.5 mi WNW 8.1 mph 19.6 mph 0.10 in Rain Rain
4:37 PM 62.6 °F - 60.8 °F 94% 29.61 in 3.0 mi WNW 10.4 mph 19.6 mph 0.10 in Rain Light Rain
4:51 PM 62.1 °F - 60.1 °F 93% 29.60 in 6.0 mi WNW 8.1 mph 17.3 mph 0.11 in Rain Light Rain
5:00 PM 62.6 °F - 59.0 °F 88% 29.62 in 9.0 mi West 9.2 mph 18.4 mph 0.01 in Rain Light Rain
5:51 PM 59.0 °F - 55.9 °F 90% 29.65 in 10.0 mi West 8.1 mph 21.9 mph 0.05 in Rain Light Rain
6:21 PM 57.2 °F - 55.4 °F 94% 29.69 in 5.0 mi Variable 4.6 mph 17.3 mph 0.01 in Rain Rain
6:47 PM 57.2 °F - 55.4 °F 94% 29.71 in 2.5 mi West 3.5 mph - 0.09 in Rain Heavy Rain
6:51 PM 57.0 °F - 55.9 °F 96% 29.73 in 2.5 mi SW 5.8 mph - 0.10 in Rain Rain
6:59 PM 57.2 °F - 55.4 °F 94% 29.72 in 1.2 mi Calm Calm - 0.10 in Rain Heavy Rain
7:51 PM 54.0 °F - 52.0 °F 93% 29.78 in 1.8 mi WSW 8.1 mph 18.4 mph 0.28 in Rain Heavy Rain
8:51 PM 53.1 °F - 52.0 °F 96% 29.78 in 1.8 mi South 5.8 mph - 0.16 in   Overcast
8:58 PM 53.6 °F - 51.8 °F 94% 29.79 in 10.0 mi South 6.9 mph - N/A   Overcast
9:51 PM 54.0 °F - 52.0 °F 93% 29.77 in 10.0 mi SSE 5.8 mph - 0.02 in   Overcast
10:51 PM 54.0 °F - 52.0 °F 93% 29.79 in 10.0 mi South 5.8 mph - N/A   Overcast
11:51 PM 54.0 °F - 53.1 °F 97% 29.80 in 10.0 mi Calm Calm - N/A   Overcast